Sioux Falls, SD

2:56 PM CDT on April 25, 2017 (GMT -0500)
Foss

Weather History for KFSD - November, 2012

Change the Weather History Date:

Monday, November 26, 2012

  Actual Average Record
Temperature  
Mean Temperature 21 °F 26 °F  
Max Temperature 28 °F 36 °F 67 °F (1914)
Min Temperature 14 °F 17 °F -12 °F (1898)
Degree Days  
Heating Degree Days 44 38  
Month to date heating degree days 725 811  
Since 1 July heating degree days 1460 1551  
Cooling Degree Days 0 0  
Month to date cooling degree days 0 0  
Year to date cooling degree days 1182 690  
Moisture  
Dew Point 10 °F    
Average Humidity 65    
Maximum Humidity 75    
Minimum Humidity 55    
Precipitation  
Precipitation T in 0.04 in 1.42 in (2001)
Month to date precipitation 0.35 1.21  
Year to date precipitation 16.03 25.54  
Snow  
Snow T in 0.30 in 12.10 in (2001)
Month to date snowfall T 6.2  
Since 1 July snowfall 1.1 7.5  
Since 1 September snowfall 1.1 7.5  
Snow Depth 0.00 in    
Sea Level Pressure  
Sea Level Pressure 30.42 in    
Wind  
Wind Speed 6 mph (NNW)    
Max Wind Speed 16 mph    
Max Gust Speed 20 mph    
Visibility 10 miles    
Events Snow    
T = Trace of Precipitation, MM = Missing Value Source: NWS Daily Summary

Daily Weather History Graph

Daily Weather History Graph

Search for Another Location

Airport or City:

Trip Planner

Search our weather history database for the weather conditions in past years. The results will help you decide how hot, cold, wet, or windy it might be!

Date:

Astronomy

Nov. 26, 2012 Rise Set
Actual Time 7:35 AM CST 4:53 PM CST
Civil Twilight 7:03 AM CST 5:25 PM CST
Nautical Twilight 6:27 AM CST 6:00 PM CST
Astronomical Twilight 5:53 AM CST 6:35 PM CST
Moon 3:48 PM CST (11/26) 5:44 AM CST (11/26)
Length of Visible Light 10h 21m
Length of Day
9h 18m
Waxing Gibbous, 97% of the Moon is Illuminated
Nov 26
Waxing Gibbous
Nov 28
Full
Dec 6
Last Quarter
Dec 13
New
Dec 19
First Quarter

Hourly Weather History & Observations

Time (CST) Temp. Windchill Dew Point Humidity Pressure Visibility Wind Dir Wind Speed Gust Speed Precip Events Conditions
12:56 AM 28.0 °F 20.0 °F 19.9 °F 72% 30.25 in 10.0 mi North 8.1 mph - N/A   Partly Cloudy
1:56 AM 26.1 °F 16.2 °F 19.0 °F 75% 30.26 in 10.0 mi NNE 10.4 mph - N/A   Partly Cloudy
2:56 AM 21.0 °F 9.3 °F 14.0 °F 74% 30.31 in 10.0 mi NNE 11.5 mph - N/A   Clear
3:38 AM 19.4 °F 7.2 °F 10.4 °F 68% 30.26 in 10.0 mi NNE 11.5 mph - N/A   Mostly Cloudy
3:56 AM 19.9 °F 8.6 °F 10.9 °F 68% 30.33 in 10.0 mi NNE 10.4 mph - N/A   Overcast
4:05 AM 19.4 °F 8.6 °F 10.4 °F 68% 30.27 in 10.0 mi NNE 9.2 mph - N/A   Overcast
4:56 AM 19.9 °F 9.3 °F 10.9 °F 68% 30.36 in 10.0 mi NNE 9.2 mph - N/A   Overcast
5:56 AM 19.0 °F 9.0 °F 12.0 °F 74% 30.38 in 10.0 mi NNE 8.1 mph - N/A   Overcast
6:56 AM 19.0 °F 9.0 °F 10.9 °F 71% 30.41 in 10.0 mi North 8.1 mph - N/A   Overcast
7:56 AM 18.0 °F 6.9 °F 10.9 °F 74% 30.45 in 10.0 mi NNE 9.2 mph - 0.00 in   Overcast
8:56 AM 18.0 °F 6.1 °F 9.0 °F 68% 30.49 in 10.0 mi NNE 10.4 mph - N/A   Overcast
9:56 AM 18.0 °F 6.9 °F 9.0 °F 68% 30.51 in 9.0 mi North 9.2 mph - 0.00 in Snow Light Snow
10:45 AM 19.4 °F 14.3 °F 8.6 °F 63% 30.44 in 10.0 mi Variable 3.5 mph - 0.00 in   Scattered Clouds
10:56 AM 19.9 °F 12.1 °F 9.0 °F 62% 30.51 in 10.0 mi Variable 5.8 mph - 0.00 in   Scattered Clouds
11:56 AM 21.9 °F 13.4 °F 10.0 °F 60% 30.50 in 10.0 mi WNW 6.9 mph - N/A   Scattered Clouds
12:56 PM 24.1 °F 15.2 °F 10.9 °F 57% 30.49 in 10.0 mi WNW 8.1 mph - N/A   Partly Cloudy
1:56 PM 25.0 °F 17.1 °F 12.0 °F 58% 30.46 in 10.0 mi West 6.9 mph - N/A   Partly Cloudy
2:56 PM 25.0 °F 18.1 °F 10.9 °F 55% 30.46 in 10.0 mi West 5.8 mph - N/A   Clear
3:56 PM 25.0 °F 19.3 °F 10.0 °F 53% 30.46 in 10.0 mi WNW 4.6 mph - N/A   Clear
4:56 PM 21.0 °F 16.2 °F 9.0 °F 60% 30.46 in 10.0 mi West 3.5 mph - N/A   Clear
5:56 PM 19.0 °F - 8.1 °F 62% 30.46 in 10.0 mi Calm Calm - N/A   Clear
6:56 PM 18.0 °F 12.7 °F 8.1 °F 65% 30.47 in 10.0 mi WSW 3.5 mph - N/A   Clear
7:56 PM 17.1 °F - 8.1 °F 68% 30.46 in 10.0 mi Calm Calm - N/A   Clear
8:56 PM 15.1 °F - 8.1 °F 74% 30.45 in 10.0 mi Calm Calm - N/A   Clear
9:56 PM 15.1 °F 9.4 °F 7.0 °F 70% 30.44 in 10.0 mi SSW 3.5 mph - N/A   Clear
10:56 PM 14.0 °F - 7.0 °F 74% 30.43 in 10.0 mi Calm Calm - N/A   Clear
11:56 PM 16.0 °F 10.4 °F 7.0 °F 68% 30.42 in 10.0 mi SSW 3.5 mph - N/A   Clear